| time (UTC) | temp F | wind direction | speed MPH | gust MPH | rain 1hr in | rain 24hr in | rain mn in | humidity % | barometer mb |
| 20260505052558 | 58 | 34 | 7.0 | 10.0 | 0.02 | 0.02 | 0.02 | 87 | 1016.6 |
| 20260505052108 | 58 | 36 | 5.0 | 12.0 | 0.02 | 0.02 | 0.02 | 88 | 1016.6 |
| 20260505052025 | 58 | 36 | 5.0 | 12.0 | 0.02 | 0.02 | 0.02 | 88 | 1016.6 |
| 20260505051548 | 58 | 34 | 6.0 | 10.0 | 0.02 | 0.02 | 0.02 | 87 | 1016.6 |
| 20260505051022 | 58 | 36 | 6.0 | 11.0 | 0.02 | 0.02 | 0.02 | 87 | 1016.6 |
| 20260505050558 | 59 | 35 | 6.0 | 11.0 | 0.02 | 0.02 | 0.02 | 86 | 1016.6 |
| 20260505050516 | 59 | 35 | 6.0 | 11.0 | 0.02 | 0.02 | 0.02 | 86 | 1016.6 |
| 20260505041556 | 60 | 35 | 4.0 | 9.0 | 0.00 | 0.00 | 0.00 | 79 | 1016.5 |
| 20260505041513 | 60 | 35 | 4.0 | 9.0 | 0.00 | 0.00 | 0.00 | 79 | 1016.5 |
| 20260505041109 | 60 | 35 | 5.0 | 9.0 | 0.00 | 0.00 | 0.00 | 78 | 1016.5 |
| 20260505040603 | 60 | 35 | 5.0 | 8.0 | 0.00 | 0.00 | 0.00 | 78 | 1016.5 |
| 20260505040520 | 60 | 35 | 5.0 | 8.0 | 0.00 | 0.00 | 0.00 | 78 | 1016.5 |
| 20260505040045 | 60 | 38 | 4.0 | 10.0 | 0.00 | 0.00 | 0.00 | 78 | 1016.4 |
| 20260505035600 | 60 | 35 | 5.0 | 10.0 | 0.00 | 0.00 | 0.00 | 77 | 1016.4 |
| 20260505035517 | 60 | 35 | 5.0 | 10.0 | 0.00 | 0.00 | 0.00 | 77 | 1016.4 |
| 20260505035052 | 60 | 36 | 6.0 | 11.0 | 0.00 | 0.00 | 0.00 | 77 | 1016.4 |
| 20260505034555 | 60 | 36 | 8.0 | 11.0 | 0.00 | 0.00 | 0.00 | 77 | 1016.4 |
| 20260505034029 | 60 | 36 | 5.0 | 9.0 | 0.00 | 0.00 | 0.00 | 77 | 1016.4 |
| 20260505033524 | 60 | 32 | 6.0 | 10.0 | 0.00 | 0.00 | 0.00 | 77 | 1016.3 |
| 20260505033046 | 60 | 38 | 6.0 | 10.0 | 0.00 | 0.00 | 0.00 | 77 | 1016.4 |
| 20260505032541 | 60 | 35 | 6.0 | 10.0 | 0.00 | 0.00 | 0.00 | 77 | 1016.4 |
| 20260505032037 | 60 | 36 | 5.0 | 9.0 | 0.00 | 0.00 | 0.00 | 77 | 1016.3 |
| 20260505031610 | 60 | 35 | 6.0 | 9.0 | 0.00 | 0.00 | 0.00 | 77 | 1016.2 |
| 20260505031043 | 60 | 36 | 6.0 | 9.0 | 0.00 | 0.00 | 0.00 | 77 | 1016.1 |
| 20260505030557 | 60 | 34 | 5.0 | 12.0 | 0.00 | 0.00 | 0.00 | 77 | 1016.0 |
| 20260505030015 | 60 | 35 | 7.0 | 12.0 | 0.00 | 0.00 | 0.00 | 76 | 1016.0 |
| 20260505025531 | 60 | 34 | 7.0 | 10.0 | 0.00 | 0.00 | 0.00 | 76 | 1016.0 |
| 20260505025048 | 60 | 35 | 6.0 | 10.0 | 0.00 | 0.00 | 0.00 | 77 | 1015.9 |
| 20260505024528 | 60 | 38 | 7.0 | 12.0 | 0.00 | 0.00 | 0.00 | 76 | 1015.9 |
| 20260505024024 | 60 | 34 | 8.0 | 12.0 | 0.00 | 0.00 | 0.00 | 76 | 1016.0 |
| 20260505023542 | 61 | 35 | 7.0 | 11.0 | 0.00 | 0.00 | 0.00 | 76 | 1016.0 |
| 20260505023115 | 61 | 34 | 5.0 | 12.0 | 0.00 | 0.00 | 0.00 | 76 | 1016.0 |
| 20260505022608 | 61 | 35 | 8.0 | 13.0 | 0.00 | 0.00 | 0.00 | 76 | 1016.0 |
| 20260505022526 | 61 | 35 | 8.0 | 13.0 | 0.00 | 0.00 | 0.00 | 76 | 1016.0 |
| 20260505022041 | 61 | 35 | 8.0 | 13.0 | 0.00 | 0.00 | 0.00 | 75 | 1016.1 |
| 20260505021613 | 61 | 36 | 6.0 | 13.0 | 0.00 | 0.00 | 0.00 | 76 | 1016.1 |
| 20260505021530 | 61 | 36 | 6.0 | 13.0 | 0.00 | 0.00 | 0.00 | 76 | 1016.1 |
| 20260505021046 | 61 | 37 | 9.0 | 13.0 | 0.00 | 0.00 | 0.00 | 76 | 1016.0 |
| 20260505020520 | 61 | 34 | 10.0 | 13.0 | 0.00 | 0.00 | 0.00 | 75 | 1016.0 |
| 20260505020114 | 61 | 35 | 8.0 | 14.0 | 0.00 | 0.00 | 0.00 | 74 | 1016.1 |
| 20260505015607 | 61 | 36 | 8.0 | 15.0 | 0.00 | 0.00 | 0.00 | 74 | 1016.0 |
| 20260505015040 | 61 | 36 | 9.0 | 15.0 | 0.00 | 0.00 | 0.00 | 73 | 1016.1 |
| 20260505014603 | 61 | 38 | 8.0 | 14.0 | 0.00 | 0.00 | 0.00 | 74 | 1016.1 |
| 20260505014113 | 61 | 35 | 10.0 | 16.0 | 0.00 | 0.00 | 0.00 | 74 | 1016.2 |
| 20260505014030 | 61 | 35 | 10.0 | 16.0 | 0.00 | 0.00 | 0.00 | 74 | 1016.2 |
| 20260505013605 | 62 | 35 | 9.0 | 16.0 | 0.00 | 0.00 | 0.00 | 72 | 1016.2 |
| 20260505013522 | 62 | 35 | 9.0 | 16.0 | 0.00 | 0.00 | 0.00 | 72 | 1016.2 |
| 20260505013107 | 61 | 38 | 9.0 | 15.0 | 0.00 | 0.00 | 0.00 | 72 | 1016.2 |
| 20260505012541 | 61 | 35 | 11.0 | 15.0 | 0.00 | 0.00 | 0.00 | 71 | 1016.1 |
| 20260505012036 | 62 | 36 | 9.0 | 14.0 | 0.00 | 0.00 | 0.00 | 70 | 1016.1 |
| 20260505011537 | 62 | 34 | 9.0 | 17.0 | 0.00 | 0.00 | 0.00 | 71 | 1016.1 |
| 20260505011053 | 62 | 36 | 11.0 | 16.0 | 0.00 | 0.00 | 0.00 | 69 | 1016.2 |
| 20260505010547 | 62 | 36 | 9.0 | 17.0 | 0.00 | 0.00 | 0.00 | 68 | 1016.2 |
| 20260505010049 | 63 | 35 | 10.0 | 17.0 | 0.00 | 0.00 | 0.00 | 68 | 1016.2 |
| 20260505005523 | 62 | 34 | 11.0 | 17.0 | 0.00 | 0.00 | 0.00 | 70 | 1016.3 |
| 20260505005018 | 62 | 31 | 9.0 | 16.0 | 0.00 | 0.00 | 0.00 | 67 | 1016.2 |
| 20260505004602 | 62 | 36 | 12.0 | 16.0 | 0.00 | 0.00 | 0.00 | 67 | 1016.3 |
| 20260505004055 | 62 | 35 | 12.0 | 17.0 | 0.00 | 0.00 | 0.00 | 68 | 1016.3 |
| 20260505004013 | 62 | 35 | 12.0 | 17.0 | 0.00 | 0.00 | 0.00 | 68 | 1016.3 |
| 20260505003548 | 63 | 35 | 9.0 | 19.0 | 0.00 | 0.00 | 0.00 | 67 | 1016.3 |
| 20260505003027 | 63 | 35 | 10.0 | 19.0 | 0.00 | 0.00 | 0.00 | 67 | 1016.4 |
| 20260505002522 | 63 | 36 | 11.0 | 19.0 | 0.00 | 0.00 | 0.00 | 66 | 1016.3 |
| 20260505002018 | 63 | 38 | 12.0 | 20.0 | 0.00 | 0.00 | 0.00 | 67 | 1016.3 |
| 20260505001613 | 63 | 34 | 10.0 | 20.0 | 0.00 | 0.00 | 0.00 | 68 | 1016.3 |
| 20260505001025 | 63 | 35 | 11.0 | 21.0 | 0.00 | 0.00 | 0.00 | 67 | 1016.3 |
| 20260505000601 | 64 | 35 | 10.0 | 21.0 | 0.00 | 0.00 | 0.00 | 65 | 1016.3 |
| 20260505000518 | 64 | 35 | 10.0 | 21.0 | 0.00 | 0.00 | 0.00 | 65 | 1016.3 |
| 20260505000042 | 63 | 36 | 11.0 | 19.0 | 0.00 | 0.00 | 0.00 | 64 | 1016.3 |
| 20260504235516 | 63 | 36 | 12.0 | 19.0 | 0.00 | 0.00 | 0.00 | 63 | 1016.4 |
| 20260504235112 | 63 | 35 | 10.0 | 20.0 | 0.00 | 0.00 | 0.00 | 64 | 1016.4 |
| 20260504235029 | 63 | 35 | 10.0 | 20.0 | 0.00 | 0.00 | 0.00 | 64 | 1016.4 |
| 20260504234531 | 63 | 36 | 14.0 | 20.0 | 0.00 | 0.00 | 0.00 | 62 | 1016.4 |
| 20260504234107 | 64 | 37 | 11.0 | 18.0 | 0.00 | 0.00 | 0.00 | 64 | 1016.3 |
| 20260504234024 | 64 | 37 | 11.0 | 18.0 | 0.00 | 0.00 | 0.00 | 64 | 1016.3 |
| 20260504233600 | 63 | 36 | 12.0 | 20.0 | 0.00 | 0.00 | 0.00 | 64 | 1016.2 |
| 20260504233517 | 63 | 36 | 12.0 | 20.0 | 0.00 | 0.00 | 0.00 | 64 | 1016.2 |
| 20260504233039 | 63 | 34 | 13.0 | 20.0 | 0.00 | 0.00 | 0.00 | 64 | 1016.3 |
| 20260504232613 | 64 | 35 | 12.0 | 17.0 | 0.00 | 0.00 | 0.00 | 61 | 1016.5 |
| 20260504232027 | 64 | 36 | 10.0 | 16.0 | 0.00 | 0.00 | 0.00 | 61 | 1016.2 |
| 20260504231528 | 64 | 32 | 9.0 | 18.0 | 0.00 | 0.00 | 0.00 | 60 | 1016.3 |
| 20260504231043 | 64 | 36 | 10.0 | 19.0 | 0.00 | 0.00 | 0.00 | 58 | 1016.2 |
| 20260504230557 | 64 | 38 | 13.0 | 19.0 | 0.00 | 0.00 | 0.00 | 57 | 1016.2 |
| 20260504230515 | 64 | 38 | 13.0 | 19.0 | 0.00 | 0.00 | 0.00 | 57 | 1016.2 |
| 20260504230109 | 64 | 34 | 12.0 | 18.0 | 0.00 | 0.00 | 0.00 | 57 | 1016.3 |
| 20260504225602 | 64 | 36 | 10.0 | 19.0 | 0.00 | 0.00 | 0.00 | 59 | 1016.2 |
| 20260504225055 | 65 | 37 | 11.0 | 19.0 | 0.00 | 0.00 | 0.00 | 59 | 1016.2 |
| 20260504225013 | 65 | 37 | 11.0 | 19.0 | 0.00 | 0.00 | 0.00 | 59 | 1016.2 |
| 20260504224537 | 64 | 35 | 12.0 | 19.0 | 0.00 | 0.00 | 0.00 | 57 | 1016.2 |
| 20260504224031 | 64 | 38 | 12.0 | 21.0 | 0.00 | 0.00 | 0.00 | 56 | 1016.2 |
| 20260504223607 | 64 | 35 | 14.0 | 19.0 | 0.00 | 0.00 | 0.00 | 56 | 1016.2 |
| 20260504223105 | 65 | 35 | 12.0 | 17.0 | 0.00 | 0.00 | 0.00 | 56 | 1016.2 |
| 20260504222522 | 65 | 32 | 9.0 | 20.0 | 0.00 | 0.00 | 0.00 | 58 | 1016.3 |
| 20260504222039 | 64 | 36 | 14.0 | 20.0 | 0.00 | 0.00 | 0.00 | 59 | 1016.4 |
| 20260504221519 | 64 | 35 | 13.0 | 19.0 | 0.00 | 0.00 | 0.00 | 55 | 1016.5 |
| 20260504221035 | 65 | 35 | 13.0 | 18.0 | 0.00 | 0.00 | 0.00 | 55 | 1016.6 |
| 20260504220529 | 65 | 34 | 11.0 | 19.0 | 0.00 | 0.00 | 0.00 | 52 | 1016.7 |
| 20260504220050 | 65 | 34 | 11.0 | 19.0 | 0.00 | 0.00 | 0.00 | 53 | 1016.7 |
| 20260504215544 | 65 | 35 | 11.0 | 19.0 | 0.00 | 0.00 | 0.00 | 55 | 1016.8 |
| 20260504215054 | 64 | 34 | 11.0 | 20.0 | 0.00 | 0.00 | 0.00 | 55 | 1016.7 |
| 20260504214534 | 65 | 35 | 12.0 | 19.0 | 0.00 | 0.00 | 0.00 | 55 | 1016.8 |
| 20260504214048 | 66 | 35 | 8.0 | 19.0 | 0.00 | 0.00 | 0.00 | 53 | 1017.0 |
| 20260504213603 | 66 | 32 | 13.0 | 18.0 | 0.00 | 0.00 | 0.00 | 51 | 1017.1 |
| 20260504213521 | 66 | 32 | 13.0 | 18.0 | 0.00 | 0.00 | 0.00 | 51 | 1017.1 |
| 20260504213107 | 64 | 35 | 8.0 | 18.0 | 0.00 | 0.00 | 0.00 | 54 | 1016.9 |
| 20260504212601 | 65 | 37 | 12.0 | 18.0 | 0.00 | 0.00 | 0.00 | 54 | 1016.9 |
| 20260504212518 | 65 | 37 | 12.0 | 18.0 | 0.00 | 0.00 | 0.00 | 54 | 1016.9 |
| 20260504212053 | 65 | 35 | 11.0 | 18.0 | 0.00 | 0.00 | 0.00 | 54 | 1017.0 |
| 20260504211537 | 65 | 36 | 10.0 | 18.0 | 0.00 | 0.00 | 0.00 | 54 | 1017.0 |
| 20260504211032 | 66 | 35 | 10.0 | 17.0 | 0.00 | 0.00 | 0.00 | 53 | 1017.2 |
| 20260504210527 | 65 | 38 | 11.0 | 16.0 | 0.00 | 0.00 | 0.00 | 56 | 1017.1 |
| 20260504210027 | 65 | 34 | 10.0 | 19.0 | 0.00 | 0.00 | 0.00 | 55 | 1017.2 |
| 20260504205522 | 65 | 35 | 11.0 | 19.0 | 0.00 | 0.00 | 0.00 | 56 | 1017.2 |
| 20260504205018 | 65 | 35 | 11.0 | 18.0 | 0.00 | 0.00 | 0.00 | 55 | 1017.2 |
| 20260504204544 | 64 | 36 | 12.0 | 18.0 | 0.00 | 0.00 | 0.00 | 56 | 1017.2 |
| 20260504204100 | 65 | 36 | 13.0 | 18.0 | 0.00 | 0.00 | 0.00 | 54 | 1017.1 |
| 20260504204018 | 65 | 36 | 13.0 | 18.0 | 0.00 | 0.00 | 0.00 | 54 | 1017.1 |
| 20260504203613 | 65 | 34 | 8.0 | 17.0 | 0.00 | 0.00 | 0.00 | 54 | 1017.1 |
| 20260504203055 | 65 | 35 | 9.0 | 17.0 | 0.00 | 0.00 | 0.00 | 54 | 1017.2 |
| 20260504202547 | 64 | 36 | 11.0 | 16.0 | 0.00 | 0.00 | 0.00 | 54 | 1017.2 |
| 20260504202042 | 65 | 36 | 11.0 | 17.0 | 0.00 | 0.00 | 0.00 | 55 | 1017.1 |
| 20260504201606 | 65 | 36 | 10.0 | 19.0 | 0.00 | 0.00 | 0.00 | 56 | 1017.2 |
| 20260504201523 | 65 | 36 | 10.0 | 19.0 | 0.00 | 0.00 | 0.00 | 56 | 1017.2 |
| 20260504201039 | 65 | 36 | 10.0 | 15.0 | 0.00 | 0.00 | 0.00 | 56 | 1017.2 |
| 20260504200613 | 64 | 34 | 9.0 | 17.0 | 0.00 | 0.00 | 0.00 | 55 | 1017.3 |
| 20260504200530 | 64 | 34 | 9.0 | 17.0 | 0.00 | 0.00 | 0.00 | 55 | 1017.3 |
| 20260504200034 | 64 | 35 | 10.0 | 17.0 | 0.00 | 0.00 | 0.00 | 56 | 1017.3 |
| 20260504195609 | 64 | 34 | 12.0 | 16.0 | 0.00 | 0.00 | 0.00 | 56 | 1017.1 |
| 20260504195023 | 64 | 36 | 8.0 | 15.0 | 0.00 | 0.00 | 0.00 | 57 | 1017.1 |
| 20260504194525 | 64 | 34 | 10.0 | 15.0 | 0.00 | 0.00 | 0.00 | 58 | 1017.3 |
| 20260504194042 | 64 | 36 | 8.0 | 16.0 | 0.00 | 0.00 | 0.00 | 58 | 1017.4 |
| 20260504193556 | 64 | 35 | 9.0 | 16.0 | 0.00 | 0.00 | 0.00 | 58 | 1017.4 |
| 20260504193016 | 64 | 36 | 8.0 | 14.0 | 0.00 | 0.00 | 0.00 | 60 | 1017.5 |
| 20260504192611 | 64 | 36 | 9.0 | 16.0 | 0.00 | 0.00 | 0.00 | 58 | 1017.5 |
| 20260504192104 | 64 | 36 | 10.0 | 16.0 | 0.00 | 0.00 | 0.00 | 60 | 1017.5 |
| 20260504191606 | 64 | 34 | 9.0 | 14.0 | 0.00 | 0.00 | 0.00 | 60 | 1017.5 |
| 20260504191020 | 64 | 35 | 8.0 | 15.0 | 0.00 | 0.00 | 0.00 | 60 | 1017.6 |
| 20260504190555 | 64 | 34 | 11.0 | 18.0 | 0.00 | 0.00 | 0.00 | 62 | 1017.5 |
| 20260504190016 | 63 | 35 | 9.0 | 19.0 | 0.00 | 0.00 | 0.00 | 62 | 1017.5 |
| 20260504185533 | 63 | 34 | 12.0 | 19.0 | 0.00 | 0.00 | 0.00 | 64 | 1017.7 |
| 20260504185127 | 63 | 36 | 8.0 | 17.0 | 0.00 | 0.00 | 0.00 | 64 | 1017.8 |
| 20260504184547 | 63 | 34 | 10.0 | 19.0 | 0.00 | 0.00 | 0.00 | 65 | 1017.8 |
| 20260504184041 | 63 | 36 | 11.0 | 19.0 | 0.00 | 0.00 | 0.00 | 63 | 1017.7 |
| 20260504183536 | 63 | 36 | 9.0 | 16.0 | 0.00 | 0.00 | 0.00 | 64 | 1017.8 |
| 20260504183040 | 63 | 35 | 10.0 | 16.0 | 0.00 | 0.00 | 0.00 | 65 | 1017.7 |
| 20260504182536 | 62 | 37 | 9.0 | 17.0 | 0.00 | 0.00 | 0.00 | 65 | 1017.7 |
| 20260504182111 | 62 | 32 | 9.0 | 15.0 | 0.00 | 0.00 | 0.00 | 66 | 1017.6 |
| 20260504182028 | 62 | 32 | 9.0 | 15.0 | 0.00 | 0.00 | 0.00 | 66 | 1017.6 |
| 20260504181530 | 63 | 34 | 8.0 | 18.0 | 0.00 | 0.00 | 0.00 | 64 | 1017.6 |
| 20260504181025 | 63 | 37 | 8.0 | 18.0 | 0.00 | 0.00 | 0.00 | 65 | 1017.7 |
| 20260504180602 | 62 | 36 | 9.0 | 15.0 | 0.00 | 0.00 | 0.00 | 65 | 1017.8 |
| 20260504180519 | 62 | 36 | 9.0 | 15.0 | 0.00 | 0.00 | 0.00 | 65 | 1017.8 |
| 20260504180022 | 62 | 34 | 9.0 | 13.0 | 0.00 | 0.00 | 0.00 | 68 | 1017.8 |
| 20260504175517 | 62 | 34 | 9.0 | 14.0 | 0.00 | 0.00 | 0.00 | 69 | 1017.6 |
| 20260504175113 | 62 | 35 | 8.0 | 14.0 | 0.00 | 0.00 | 0.00 | 70 | 1017.6 |
| 20260504175030 | 62 | 35 | 8.0 | 14.0 | 0.00 | 0.00 | 0.00 | 70 | 1017.6 |
| 20260504174530 | 61 | 34 | 9.0 | 15.0 | 0.00 | 0.00 | 0.00 | 72 | 1017.8 |
| 20260504174045 | 61 | 34 | 9.0 | 17.0 | 0.00 | 0.00 | 0.00 | 72 | 1017.7 |
| 20260504173539 | 61 | 35 | 12.0 | 17.0 | 0.00 | 0.00 | 0.00 | 73 | 1017.5 |
| 20260504173021 | 61 | 38 | 9.0 | 16.0 | 0.00 | 0.00 | 0.00 | 71 | 1017.5 |
| 20260504172517 | 61 | 36 | 6.0 | 10.0 | 0.00 | 0.00 | 0.00 | 67 | 1017.4 |
| 20260504172013 | 61 | 35 | 5.0 | 12.0 | 0.00 | 0.00 | 0.00 | 70 | 1017.5 |
| 20260504171517 | 61 | 35 | 5.0 | 12.0 | 0.00 | 0.00 | 0.00 | 72 | 1017.5 |
| 20260504171012 | 60 | 36 | 8.0 | 12.0 | 0.00 | 0.00 | 0.00 | 70 | 1017.3 |
| 20260504170607 | 61 | 35 | 7.0 | 15.0 | 0.00 | 0.00 | 0.00 | 72 | 1017.2 |
| 20260504151037 | 58 | 35 | 2.0 | 3.0 | 0.00 | 0.00 | 0.00 | 79 | 1016.8 |
| 20260504150553 | 58 | 38 | 1.0 | 2.0 | 0.00 | 0.00 | 0.00 | 79 | 1016.9 |
| 20260504141042 | 56 | 36 | 0.0 | 2.0 | 0.00 | 0.00 | 0.00 | 86 | 1016.6 |
| 20260504140538 | 56 | 32 | 0.0 | 3.0 | 0.00 | 0.00 | 0.00 | 86 | 1016.5 |
| 20260504130604 | 56 | 35 | 0.0 | 0.0 | 0.00 | 0.00 | 0.00 | 83 | 1016.1 |
| 20260504130106 | 56 | 38 | 0.0 | 0.0 | 0.00 | 0.00 | 0.00 | 83 | 1016.1 |
| 20260504110521 | 57 | 35 | 3.0 | 4.0 | 0.00 | 0.00 | 0.00 | 81 | 1016.1 |
| 20260504110111 | 57 | 39 | 2.0 | 4.0 | 0.00 | 0.00 | 0.00 | 81 | 1016.0 |
| 20260504100549 | 58 | 36 | 3.0 | 7.0 | 0.00 | 0.00 | 0.00 | 83 | 1015.5 |
| 20260504090105 | 57 | 38 | 4.0 | 9.0 | 0.00 | 0.00 | 0.00 | 86 | 1015.9 |
| 20260504081600 | 59 | 36 | 5.0 | 11.0 | 0.00 | 0.00 | 0.00 | 80 | 1016.5 |
| 20260504081518 | 59 | 36 | 5.0 | 11.0 | 0.00 | 0.00 | 0.00 | 80 | 1016.5 |
| 20260504081114 | 59 | 34 | 6.0 | 11.0 | 0.00 | 0.00 | 0.00 | 80 | 1016.8 |
| 20260504080526 | 59 | 34 | 7.0 | 10.0 | 0.00 | 0.00 | 0.00 | 80 | 1016.8 |
| 20260504070113 | 60 | 35 | 6.0 | 12.0 | 0.00 | 0.00 | 0.00 | 77 | 1017.0 |